Location: Escondida
(34.1015°N, 106.8964°W)
Time: 02:23:09
(UTC+00:00)

CZ-3 R/B - Pass Details

Date: 11 December 2025
Orbit: 551 x 10005 km, 28.3° (Epoch: 12 January)

Event Time Altitude Azimuth Distance (km) Brightness Sun altitude
Exits shadow 13:15:04 - 275° (W) 6,845 5.2 -9.9°
Reaches altitude 10° 13:17:05 10° 271° (W) 6,229 5.0 -9.6°
Maximum altitude 13:27:12 20° 232° (SW) 3,356 4.0 -7.6°
Drops below altitude 10° 13:32:26 10° 187° (S) 2,987 4.3 -6.6°
Sets 13:35:07 0° 167° (SSE) 3,436 4.9 -6.1°
